Flag Weather past 2 weeks in Bridgewater, Massachusetts, U.S.A.

Now
46 °F

Partly sunny.


Feels Like: 41 °F
Forecast: 39 / 54 °F
Wind: 9 mph from Southwest

Location: Taunton Municipal Airport

Current Time: Nov 23, 2014 at 8:42:14 AM

Latest Report: Nov 23, 2014 at 7:52 AM


Visibility: 10 mi

Pressure: 30.14 "Hg

Humidity: 54%

Dew point: 30 °F

Location of BridgewaterLocation

Historic Weather in Bridgewater — Graph

°F

Bridgewater temperature yesterday

Maximum temperature yesterday: 45 °F (at 10:52 PM)
Minimum temperature yesterday: 23 °F (at 1:52 AM)
Average temperature yesterday: 35 °F

Past Weeks' High & Low Weather Summary

 TemperatureHumidityPressure
High62 °F (Nov 11, 12:52 PM)100% (Nov 11, 8:52 PM)30.45 "Hg (Nov 11, 8:52 PM)
Low17 °F (Nov 16, 2:52 AM)30% (Nov 19, 12:52 PM)29.42 "Hg (Nov 17, 9:52 PM)
Average39 °F66%30.03 "Hg
* Reported Nov 8 6:52 AM — Nov 23 6:52 AM, Bridgewater, Weather by CustomWeather, © 2014

Note: Actual official high and low records may vary slightly from our data, if they occured in-between our weather recording intervals... More about our weather records

Advertising

Bridgewater weather history for previous 24 hours

 ConditionsComfort  
Time TempWeatherWind HumidityBarometerVisibility
6:52 AM
Nov 23
45 °FPartly sunny.12 mph51%30.13 "Hg10 mi
5:52 AM46 °FOvercast.9 mph48%30.11 "Hg10 mi
4:52 AM46 °FOvercast.12 mph46%30.10 "Hg10 mi
3:52 AM46 °FOvercast.8 mph46%30.11 "Hg10 mi
2:52 AM46 °FMostly cloudy.9 mph48%30.11 "Hg10 mi
1:52 AM46 °FPassing clouds.12 mph48%30.10 "Hg10 mi
12:52 AM46 °FLight rain. Overcast.9 mph50%30.10 "Hg10 mi
11:52 PM
Nov 22
45 °FPassing clouds.9 mph49%30.10 "Hg10 mi
10:52 PM45 °FClear.5 mph48%30.10 "Hg10 mi
9:52 PM43 °FPassing clouds.9 mph51%30.11 "Hg10 mi
8:52 PM43 °FClear.9 mph51%30.12 "Hg10 mi
7:52 PM42 °FPassing clouds.12 mph53%30.12 "Hg10 mi
6:52 PM41 °FMostly cloudy.10 mph53%30.14 "Hg10 mi
5:52 PM40 °FMostly cloudy.12 mph51%30.17 "Hg10 mi
4:52 PM39 °FPassing clouds.9 mph48%30.18 "Hg10 mi
3:52 PM40 °FSunny.9 mph40%30.19 "Hg10 mi
2:52 PM43 °FSunny.12 mph40%30.20 "Hg10 mi
1:52 PM43 °FSunny.13 mph37%30.23 "Hg10 mi
12:52 PM42 °FSunny.14 mph36%30.25 "Hg10 mi
11:52 AM40 °FSunny.13 mph40%30.29 "Hg10 mi
10:52 AM37 °FSunny.13 mph46%30.35 "Hg10 mi
9:52 AM35 °FSunny.12 mph38%30.40 "Hg10 mi
8:52 AM30 °FSunny.5 mph47%30.42 "Hg10 mi
Weather by CustomWeather, © 2014

See weather overviewHow to use our weather pages